Regional Weather Roundup
Issued by NWS

Home | Current Version | Previous Version | Text Only | Print | Product List | Glossary Off
Versions: 1 2 3 4 5 6 7 8 9 10 11 12 13 14 15 16 17 18 19 20 21 22 23 24 25 26 27 28

000
ASUS45 KSLC 220510
RWRUT

UTAH REGIONAL WEATHER ROUNDUP
NATIONAL WEATHER SERVICE SALT LAKE CITY UT
1100 PM MDT SAT APR 21 2018

UTZ001>011-023>025-220600-

NORTHERN UTAH

CITY           SKY/WX    TMP DP  RH WIND       PRES   REMARKS
BRIGHAM CITY   CLEAR     54  33  44 CALM      30.15F
HILL AFB       CLEAR     53  28  38 E5        30.16S
LOGAN          CLEAR     56  36  47 SE3       30.15R
OGDEN          CLEAR     50  30  46 MISG      30.14F
SALT LAKE CITY CLEAR     55  30  38 S6        30.14S
TOOELE VALLEY  CLEAR     43  36  75 S9        30.15F
WENDOVER       CLEAR     58  29  33 CALM      30.13S
HEBER CITY       N/A     39  25  56 E3        30.20R
WEST JORDAN    CLEAR     52  31  46 SW3       30.17S

$$

UTZ011>015-024>027-220600-

CENTRAL/NORTHEAST UTAH

CITY           SKY/WX    TMP DP  RH WIND       PRES   REMARKS
PROVO AIRPORT  CLEAR     49  39  68 S5        30.18R
MOAB/CANYONLAN CLEAR     54  31  41 CALM      30.12R
DELTA          CLEAR     52  32  46 CALM      30.17S
PRICE          CLEAR     56  26  31 NW8       30.17R
ROOSEVELT      CLEAR     46  36  66 SW6       30.16S
VERNAL         CLEAR     49  38  65 NW5       30.14R

$$

UTZ013>016-019>022-027-220600-

SOUTHERN UTAH

CITY           SKY/WX    TMP DP  RH WIND       PRES   REMARKS
BRYCE CANYON   CLEAR     39  25  57 NW10      30.28R WCI  32
CEDAR CITY     CLEAR     45  30  55 N6        30.18S
MILFORD        CLEAR     48  35  60 W10       30.17S
ST GEORGE      CLEAR     71  22  15 CALM      30.04R
HANKSVILLE     CLEAR     54  23  30 E9        30.14R
BLANDING         N/A     47  26  43 NE10      30.27S

$$

REGIONAL REPORTS     COLORADO/ARIZONA

CITY           SKY/WX    TMP DP  RH WIND       PRES   REMARKS
CRAIG, CO      CLEAR     41  35  79 E6        30.20S
GRAND JUNCTION CLEAR     52  35  52 E12       30.17R
RIFLE, CO      CLEAR     42  36  79 CALM      30.22R
MONTROSE, CO   CLEAR     45  33  63 SE9       30.23F
CORTEZ, CO     CLEAR     40  24  53 VRB3      30.21R
COLORADO CITY    N/A     45  27  49 SE6       30.16R
PAGE, AZ       CLEAR     61  31  32 S5        30.10R
GRAND CANYON   CLEAR     36  25  64 CALM      30.23R
KINGMAN, AZ    MOCLDY    62  22  21 SE6       30.06R
FLAGSTAFF, AZ  CLEAR     39  20  46 CALM      30.25R

$$

REGIONAL REPORTS    NEVADA/IDAHO/WYOMING

CITY           SKY/WX    TMP DP  RH WIND       PRES   REMARKS
LAS VEGAS, NV  PTCLDY    76  28  17 W6        29.99R
ELY, NY        CLEAR     44  19  36 S9        30.21R
ELKO, NV       CLEAR     49  32  52 CALM      30.16S
POCATELLO, ID  CLEAR     57  33  40 SW17      30.14R
BURLEY, ID     CLEAR     48  33  56 SW13      30.13R
FORT BRIDGER,    N/A     46  27  46 W10       30.26R
EVANSTON, WY   CLEAR     42  26  53 W9        30.25S
ROCK SPRINGS,  CLEAR     45  23  42 SW12      30.18R
KEMMERER, WY   CLEAR     41  27  56 NW6       30.24R

$$




USA.gov is the U.S. government's official web portal to all federal, state and local government web resources and services.